This demonstration page uses our WeatherBlox Daily Observations layout. Learn more.

Left ArrowRight Arrow

53.62937, 11.41316

Hourly Observations for September 20, 2021

Temp ( °F °C ) Dew Point ( °F °C ) Humidity (%) Winds ( mph kmh ) Pressure ( in mb ) Visibility ( mi km ) Precip ( " mm )
5:50 am 05:50 Mostly Cloudy 50 10 46 8 88 88 VRB 1 2 30.15 1021 30 48 N/A
6:20 am 06:20 Mostly Cloudy 50 10 46 8 88 88 VRB 1 2 30.15 1021 30 48 N/A
6:50 am 06:50 Mostly Clear 50 10 46 8 88 88 VRB 1 2 30.18 1022 7 11 N/A
7:20 am 07:20 Mostly Sunny 50 10 48 9 94 94 VRB 2 4 30.18 1022 7 11 N/A
7:50 am 07:50 Mostly Sunny 50 10 48 9 94 94 VRB 1 2 30.18 1022 7 11 N/A
8:20 am 08:20 Mostly Cloudy 50 10 48 9 94 94 VRB 1 2 30.18 1022 30 48 N/A
8:50 am 08:50 Mostly Cloudy 52 11 50 10 94 94 VRB 2 4 30.18 1022 30 48 N/A
9:20 am 09:20 Mostly Cloudy 54 12 46 8 77 77 N 3 6 30.18 1022 30 48 N/A
9:50 am 09:50 Mostly Cloudy 54 12 46 8 77 77 N 2 4 30.18 1022 30 48 N/A
10:20 am 10:20 Mostly Cloudy 54 12 46 8 77 77 NNE 1 2 30.21 1023 30 48 N/A
10:50 am 10:50 Mostly Cloudy 55 13 48 9 77 77 VRB 2 4 30.21 1023 30 48 N/A
11:20 am 11:20 Mostly Cloudy 54 12 48 9 82 82 NW 5 7 30.21 1023 30 48 N/A
11:50 am 11:50 Mostly Cloudy 55 13 48 9 77 77 NNW 5 7 30.21 1023 30 48 N/A
12:20 pm 12:20 Partly Cloudy 55 13 48 9 77 77 VRB 5 7 30.21 1023 30 48 N/A
12:50 pm 12:50 Mostly Cloudy 55 13 48 9 77 77 NW 5 7 30.21 1023 30 48 N/A
1:20 pm 13:20 Mostly Sunny 55 13 48 9 77 77 N 6 9 30.21 1023 7 11 N/A
1:50 pm 13:50 Mostly Sunny 55 13 46 8 72 72 N 6 9 30.21 1023 7 11 N/A
2:20 pm 14:20 Mostly Sunny 55 13 48 9 77 77 N 7 11 30.21 1023 7 11 N/A
2:50 pm 14:50 Mostly Sunny 55 13 46 8 72 72 NNW 7 11 30.21 1023 7 11 N/A
3:20 pm 15:20 Mostly Sunny 55 13 46 8 72 72 N 7 11 30.21 1023 7 11 N/A
3:50 pm 15:50 Mostly Sunny 55 13 45 7 67 67 N 8 13 30.21 1023 7 11 N/A
4:20 pm 16:20 Mostly Sunny 57 14 46 8 67 67 N 8 13 30.21 1023 7 11 N/A
4:50 pm 16:50 Mostly Sunny 57 14 46 8 67 67 N 6 9 30.21 1023 7 11 N/A
5:20 pm 17:20 Mostly Sunny 57 14 46 8 67 67 N 6 9 30.24 1024 7 11 N/A
5:50 pm 17:50 Partly Cloudy 55 13 46 8 72 72 N 6 9 30.24 1024 30 48 N/A
6:20 pm 18:20 Mostly Sunny 55 13 46 8 72 72 N 6 9 30.24 1024 7 11 N/A
6:50 pm 18:50 Mostly Sunny 55 13 46 8 72 72 NNE 5 7 30.24 1024 7 11 N/A
7:20 pm 19:20 Mostly Sunny 54 12 48 9 82 82 N 5 7 30.24 1024 7 11 N/A
7:50 pm 19:50 Mostly Clear 54 12 48 9 82 82 VRB 2 4 30.24 1024 7 11 N/A
8:20 pm 20:20 Mostly Clear 52 11 48 9 88 88 N N/A 30.27 1025 7 11 N/A
8:50 pm 20:50 Mostly Clear 52 11 50 10 94 94 WSW 2 4 30.27 1025 7 11 N/A
9:20 pm 21:20 Mostly Clear 50 10 48 9 94 94 VRB 1 2 30.27 1025 7 11 N/A
9:50 pm 21:50 Mostly Clear 50 10 48 9 94 94 WSW 1 2 30.27 1025 7 11 N/A

Powered by AerisWeather